Weather History for Wichita Falls, TX

Change the Weather History Date:

Monday, May 20, 2013

  Actual Average (KSPS) Record (KSPS)
Temperature  
Mean Temperature 84 °F 73 °F  
Max Temperature 95 °F 85 °F 101 °F (1996)
Min Temperature 72 °F 61 °F 45 °F (1971)
Cooling Degree Days 18 8  
Month to date cooling degree days 120  
Year to date cooling degree days 212  
Growing Degree Days 34 (Base 50)    
Moisture  
Dew Point 64 °F    
Average Humidity 59    
Maximum Humidity 79    
Minimum Humidity 35    
Precipitation  
Precipitation 0.68 in 0.12 in 3.41 in (1979)
Month to date precipitation 2.30  
Year to date precipitation 10.00  
Sea Level Pressure  
Sea Level Pressure 29.68 in    
Wind  
Wind Speed 14 mph (SSE)    
Max Wind Speed 32 mph    
Max Gust Speed 43 mph    
Visibility 10 miles    
Events Rain , Thunderstorm    
T = Trace of Precipitation, MM = Missing Value Source: NWS Daily Summary

Daily Weather History Graph

Daily Weather History Graph

Search for Another Location

Airport:

Trip Planner

Search our weather history database for the weather conditions in past years. The results will help you decide how hot, cold, wet, or windy it might be!

Date:

Astronomy

May. 20, 2013 Rise Set
Actual Time 6:29 AM CDT 8:32 PM CDT
Civil Twilight 6:01 AM CDT 9:00 PM CDT
Nautical Twilight 5:27 AM CDT 9:34 PM CDT
Astronomical Twilight 4:51 AM CDT 10:10 PM CDT
Moon 3:53 PM CDT (5/20) 3:11 AM CDT (5/20)
Length of Visible Light 14h 58m
Length of Day
14h 02m
Waxing Gibbous, 75% of the Moon is Illuminated
May 20
Waxing Gibbous
May 24
Full
May 31
Last Quarter
Jun 8
New
Jun 16
First Quarter

Hourly Weather History & Observations

Time (CDT) Temp. Heat Index Dew Point Humidity Pressure Visibility Wind Dir Wind Speed Gust Speed Precip Events Conditions
12:15 AM 83.7 °F 85.5 °F 65.7 °F 54% 29.69 in 10.0 mi South 16.1 mph - N/A   Clear
12:35 AM 82.9 °F 85.0 °F 65.8 °F 56% 29.69 in 10.0 mi South 17.3 mph 24.2 mph N/A   Clear
12:55 AM 82.4 °F 84.6 °F 66.2 °F 58% 29.69 in 10.0 mi SSE 15.0 mph 23.0 mph N/A   Clear
1:15 AM 81.9 °F 84.1 °F 66.2 °F 59% 29.69 in 10.0 mi South 18.4 mph 23.0 mph N/A   Clear
1:35 AM 81.3 °F 83.5 °F 66.2 °F 60% 29.70 in 10.0 mi South 15.0 mph 23.0 mph N/A   Clear
1:55 AM 80.6 °F 82.7 °F 66.0 °F 61% 29.70 in 10.0 mi South 16.1 mph 23.0 mph N/A   Clear
2:15 AM 79.9 °F - 65.7 °F 62% 29.70 in 10.0 mi South 16.1 mph 19.6 mph N/A   Clear
2:35 AM 79.7 °F - 65.3 °F 61% 29.70 in 10.0 mi South 15.0 mph 21.9 mph N/A   Clear
3:15 AM 78.3 °F - 64.8 °F 63% 29.70 in 10.0 mi South 11.5 mph 18.4 mph N/A   Clear
3:35 AM 77.9 °F - 64.8 °F 64% 29.70 in 10.0 mi South 9.2 mph - N/A   Clear
3:55 AM 77.0 °F - 64.8 °F 66% 29.70 in 10.0 mi South 9.2 mph - N/A   Clear
4:35 AM 75.7 °F - 64.8 °F 69% 29.70 in 10.0 mi South 9.2 mph - N/A   Clear
4:55 AM 75.2 °F - 64.8 °F 70% 29.70 in 10.0 mi South 9.2 mph - N/A   Clear
5:15 AM 75.2 °F - 64.8 °F 70% 29.70 in 10.0 mi SSE 10.4 mph - N/A   Clear
5:35 AM 74.7 °F - 64.8 °F 71% 29.70 in 10.0 mi SSE 11.5 mph - N/A   Clear
5:55 AM 73.8 °F - 64.8 °F 73% 29.70 in 10.0 mi SSE 11.5 mph - N/A   Clear
6:15 AM 73.8 °F - 64.8 °F 73% 29.71 in 10.0 mi SSE 11.5 mph - N/A   Clear
6:35 AM 73.6 °F - 64.9 °F 74% 29.71 in 10.0 mi SSE 10.4 mph - N/A   Clear
7:15 AM 74.1 °F - 65.3 °F 74% 29.72 in 10.0 mi SSE 12.7 mph - N/A   Clear
7:35 AM 75.2 °F - 65.3 °F 71% 29.73 in 10.0 mi South 12.7 mph 18.4 mph N/A   Clear
7:55 AM 76.3 °F - 65.5 °F 69% 29.73 in 10.0 mi South 15.0 mph 20.7 mph N/A   Clear
8:15 AM 77.5 °F - 65.7 °F 67% 29.73 in 10.0 mi South 15.0 mph - N/A   Clear
8:35 AM 78.6 °F - 65.8 °F 65% 29.74 in 10.0 mi South 19.6 mph 23.0 mph N/A   Clear
8:55 AM 79.7 °F - 66.2 °F 63% 29.74 in 10.0 mi South 19.6 mph 25.3 mph N/A   Clear
9:15 AM 80.8 °F 82.9 °F 66.4 °F 61% 29.74 in 10.0 mi South 18.4 mph 26.5 mph N/A   Clear
9:35 AM 82.6 °F 84.9 °F 66.6 °F 58% 29.74 in 10.0 mi South 17.3 mph 27.6 mph N/A   Clear
10:35 AM 85.6 °F 88.2 °F 66.6 °F 53% 29.73 in 10.0 mi South 17.3 mph 28.8 mph N/A   Clear
10:55 AM 86.5 °F 89.0 °F 66.4 °F 51% 29.73 in 10.0 mi SSW 17.3 mph 27.6 mph N/A   Clear
11:15 AM 87.6 °F 90.1 °F 66.4 °F 49% 29.73 in 10.0 mi SSW 15.0 mph 28.8 mph N/A   Scattered Clouds
11:35 AM 88.7 °F 91.1 °F 66.4 °F 47% 29.73 in 10.0 mi SSW 19.6 mph 29.9 mph N/A   Scattered Clouds
11:55 AM 89.8 °F 92.5 °F 66.2 °F 46% 29.73 in 10.0 mi South 19.6 mph 27.6 mph N/A   Scattered Clouds
12:15 PM 89.4 °F 91.9 °F 66.4 °F 46% 29.73 in 10.0 mi South 16.1 mph 25.3 mph N/A   Mostly Cloudy
12:35 PM 90.7 °F 93.2 °F 66.0 °F 44% 29.72 in 10.0 mi South 16.1 mph 24.2 mph N/A   Mostly Cloudy
1:15 PM 93.4 °F 96.1 °F 65.8 °F 40% 29.70 in 10.0 mi South 15.0 mph 21.9 mph N/A   Scattered Clouds
1:55 PM 95.2 °F 97.8 °F 65.3 °F 37% 29.67 in 10.0 mi South 20.7 mph 27.6 mph N/A   Scattered Clouds
2:15 PM 93.4 °F 95.6 °F 64.9 °F 39% 29.64 in 10.0 mi South 24.2 mph 32.2 mph N/A   Clear
2:35 PM 92.3 °F 94.3 °F 64.8 °F 40% 29.63 in 10.0 mi South 24.2 mph 29.9 mph N/A Thunderstorm Thunderstorm
2:55 PM 92.5 °F 94.1 °F 63.9 °F 39% 29.61 in 10.0 mi South 21.9 mph 28.8 mph N/A Thunderstorm Thunderstorm
3:15 PM 92.5 °F 94.1 °F 64.2 °F 39% 29.60 in 10.0 mi South 25.3 mph 33.4 mph N/A Rain , Thunderstorm Light Thunderstorms and Rain
3:35 PM 93.7 °F 94.5 °F 62.6 °F 35% 29.58 in 10.0 mi South 32.2 mph 42.6 mph N/A Thunderstorm Thunderstorm
3:55 PM 91.2 °F 93.7 °F 66.0 °F 43% 29.61 in 10.0 mi South 20.7 mph 35.7 mph N/A Rain , Thunderstorm Light Thunderstorms and Rain
4:15 PM 86.7 °F 89.0 °F 66.0 °F 50% 29.63 in 10.0 mi West 5.8 mph 17.3 mph N/A Rain , Thunderstorm Light Thunderstorms and Rain
4:35 PM 81.1 °F 83.5 °F 66.9 °F 62% 29.61 in 10.0 mi WNW 6.9 mph - N/A Rain , Thunderstorm Thunderstorms and Rain
4:55 PM 73.6 °F - 66.7 °F 79% 29.58 in 1.0 mi NNW 11.5 mph 39.1 mph 0.01 in Rain , Thunderstorm Heavy Thunderstorms and Rain
5:15 PM 73.8 °F - 59.9 °F 62% 29.57 in 5.0 mi NNE 4.6 mph - 0.02 in Rain , Thunderstorm Light Thunderstorms and Rain
5:35 PM 79.5 °F - 61.7 °F 54% 29.59 in 10.0 mi NNE 13.8 mph 21.9 mph 0.04 in Thunderstorm Thunderstorm
5:55 PM 74.7 °F - 64.4 °F 70% 29.59 in 10.0 mi East 4.6 mph - 0.08 in Thunderstorm Overcast
6:15 PM 76.3 °F - 63.5 °F 64% 29.60 in 10.0 mi ESE 8.1 mph - 0.08 in   Mostly Cloudy
6:35 PM 77.4 °F - 65.1 °F 66% 29.64 in 10.0 mi ESE 11.5 mph 21.9 mph 0.16 in   Scattered Clouds
6:55 PM 77.9 °F - 63.9 °F 62% 29.65 in 10.0 mi East 13.8 mph 24.2 mph 0.25 in   Scattered Clouds
7:15 PM 77.4 °F - 61.5 °F 58% 29.63 in 10.0 mi East 10.4 mph 17.3 mph 0.10 in   Clear
7:35 PM 78.3 °F - 61.9 °F 57% 29.64 in 10.0 mi ESE 5.8 mph - 0.19 in   Clear
7:55 PM 78.4 °F - 61.3 °F 56% 29.64 in 10.0 mi ESE 11.5 mph - 0.28 in   Clear
8:15 PM 77.0 °F - 61.9 °F 59% 29.64 in 10.0 mi SE 6.9 mph - 0.06 in   Clear
8:35 PM 75.7 °F - 62.4 °F 63% 29.66 in 10.0 mi SE 9.2 mph - 0.06 in   Clear
9:15 PM 75.2 °F - 63.3 °F 66% 29.68 in 10.0 mi SE 8.1 mph - N/A   Clear
9:35 PM 73.9 °F - 62.4 °F 67% 29.69 in 10.0 mi SE 12.7 mph - N/A   Clear
9:55 PM 72.3 °F - 61.0 °F 67% 29.69 in 10.0 mi SE 8.1 mph - N/A   Clear
10:15 PM 72.0 °F - 59.7 °F 65% 29.69 in 10.0 mi SE 8.1 mph - N/A   Clear
10:35 PM 72.5 °F - 59.5 °F 64% 29.71 in 10.0 mi East 4.6 mph - N/A   Clear
10:55 PM 76.3 °F - 62.2 °F 62% 29.72 in 10.0 mi East 12.7 mph 25.3 mph N/A   Clear
11:15 PM 74.5 °F - 61.7 °F 64% 29.75 in 10.0 mi NNE 11.5 mph 19.6 mph N/A   Clear
11:35 PM 73.0 °F - 62.1 °F 68% 29.75 in 10.0 mi NNE 11.5 mph - N/A   Clear
11:55 PM 72.0 °F - 62.4 °F 72% 29.74 in 10.0 mi NNE 12.7 mph - N/A   Clear